This is the latest recevied weather packets stored in our database for station/object FREPRT-WX. If no packets are shown the sender has not sent any weather packets the latest 10 day(s).
| Time | Temp. | Humidity | Pressure | Rain* | Wind** | Luminosity | Snow |
|---|---|---|---|---|---|---|---|
| 1778043675 | 6.11° C | 71% | 981 hPa | 0 mm | - | - | - |
| 1778042740 | 6.67° C | 64% | 981.8 hPa | 0 mm | - | - | - |
| 1778041855 | 6.67° C | 68% | 981.3 hPa | 0 mm | - | - | - |
| 1778040940 | 6.67° C | 68% | 981.3 hPa | 0 mm | - | - | - |
| 1778040077 | 6.67° C | 68% | 981.3 hPa | 0 mm | - | - | - |
| 1778039137 | 6.67° C | 61% | 981 hPa | 0 mm | - | - | - |
| 1778037339 | 7.22° C | 61% | 980.9 hPa | 0 mm | - | - | - |
| 1778036478 | 7.22° C | 61% | 980.9 hPa | 0 mm | - | - | - |
| 1778035539 | 7.22° C | 56% | 981 hPa | 0 mm | - | - | - |
| 1778034657 | 7.78° C | 55% | 981.1 hPa | 0 mm | - | - | - |
| 1778033738 | 7.78° C | 55% | 981.1 hPa | 0 mm | - | - | - |
| 1778032863 | 7.78° C | 55% | 981.1 hPa | 0 mm | - | - | - |
| 1778031938 | 7.78° C | 49% | 980.7 hPa | 0 mm | - | - | - |
| 1778031060 | 8.33° C | 49% | 980.7 hPa | 0 mm | - | - | - |
| 1778030139 | 7.78° C | 49% | 980.6 hPa | 0 mm | - | - | - |
| 1778029265 | 7.78° C | 49% | 980.6 hPa | 0 mm | - | - | - |
| 1778028338 | 8.89° C | 41% | 980.7 hPa | 0 mm | - | - | - |
| 1778027453 | 9.44° C | 39% | 981 hPa | 0 mm | - | - | - |
| 1778026538 | 10° C | 39% | 981 hPa | 0 mm | - | - | - |
| 1778025671 | 10° C | 39% | 981 hPa | 0 mm | - | - | - |
| 1778024739 | 10.56° C | 36% | 980.6 hPa | 0 mm | - | - | - |
| 1778023855 | 10.56° C | 35% | 980.7 hPa | 0 mm | - | - | - |
| 1778022939 | 11.11° C | 35% | 980.7 hPa | 0 mm | - | - | - |
| 1778022065 | 11.11° C | 35% | 980.7 hPa | 0 mm | - | - | - |
| 1778021139 | 11.11° C | 35% | 980.7 hPa | 0 mm | - | - | - |
* Rain latest hour (hover to see other rain measurements)
** Current wind speed in m/s (hover to see current wind gust speed)